Location: Cudham
(51.3000°N, 0.0667°E)
Time: 21:19:40
(UTC+00:00)

Cosmos 1346 Rocket - Pass Details

Date: 19 May 2025
Orbit: 485 x 499 km, 81.2° (Epoch: 18 June)

Event Time Altitude Azimuth Distance (km) Brightness Sun altitude
Rises 21:05:37 0° 345° (NNW) 2,589 7.6 -9.5°
Reaches altitude 10° 21:07:45 10° 342° (NNW) 1,699 6.6 -9.7°
Maximum altitude 21:11:26 65° 261° (W) 544 2.9 -10.1°
Drops below altitude 10° 21:15:05 10° 179° (S) 1,675 4.8 -10.5°
Enters shadow 21:15:08 10° 179° (S) 1,694 4.8 -10.5°
